Starlink 32852

operational
NORAD ID: 62824 Int'l Des: 2025-018 Owner: SPXS Country: US Constellation: starlink
LEOCIRCULAR

关于 Starlink 32852

正在加载描述...

实时位置

正在加载3D地球...

即将过境

高度历史

Altitude vs Time

uPlot chart will show altitude changes over time

两行轨道根数

1 62824U 25018U 25257.70873245 .00030804 00000-0 10480-2 0 9995
2 62824 53.1594 47.1006 0000888 62.4573 297.6518 15.30195864 36234
Epoch: Sep 14, 2025 • Age: 21 hours

当前状态

高度 480.6 km
速度 7.63 km/s
星下点 51.01°N, 46.31°W
发射日期 Jan 24, 2025
运行时间 0.6 years
类型 internet

技术详情

分类 Payload
质量 730.00 kg
干质量 700.00 kg
总质量 730.00 kg
长度 0.30 m
直径 4.10 m
跨度 29.00 m
形状 Box + pan
制造商 SPXS
平台类型 Starlink V2M
阶段状态 In Orbit
所有者/国家 SPXS/US

大型星座

Loading constellations...